< < Back
Terminal Aerodrome Forecast


Current Version              Previous Versions:   1  2  3  4  5  6  7  8  9  

Terminal Aerodrome Forecast

352
FTUS42 KGSP 031739
TAFAVL
TAF
KAVL 031739Z 0318/0418 34006KT P6SM VCSH BKN035
     FM032100 33009KT P6SM BKN040
     FM032300 33010KT P6SM SCT040
     FM040700 33007KT P6SM BKN015
     FM041200 34007KT P6SM SCT030
     FM041600 35011KT P6SM SCT050=



Latest METAR

694
SAUS70 KWBC 040400 RRC
MTRAVL
METAR KAVL 040354Z AUTO 34008KT 10SM CLR 13/08 A2984 RMK AO2 SLP087
T01330083


USA.gov is the U.S. government's official web portal to all federal, state and local government web resources and services.